Погода в Колумбии

США     34°00′02″N   81°02′06″W
темп.,
°C
ветер,
м/с
пор.,
м/с
влажн.,
%
обл.,
%
осадки,
мм/ч
давл.,
гПа
погр.,
м
19 апреля, пн
пн1923:00+16ссв1156100 0.0 101132
02:00+16ссв016095 0.0 101016
05:00+14зсз246855 0.0 1009106
08:00+13зсз38630 0.0 1011275
11:00+20зсз35460 0.0 10111303
14:00+22с663952 0.0 10112285
17:00+23с45305 0.0 10112706
20:00+18с12468 0.0 101357
20 апреля, вт
вт2023:00+15вюв23575 0.0 101592
02:00+14всв255891 0.0 1016119
05:00+12в116682 0.0 101740
08:00+14вюв2362100 0.0 1018143
11:00+20юв3540100 0.0 1018903
14:00+24ю463299 0.0 10162348
17:00+23юз5635100 0.0 10142681
20:00+17ююз2678100 0.5 1015227
21 апреля, ср
ср2123:00+15ююв278551 0.3 1015217
02:00+14ю21094100 0.5 1014302
05:00+14юз311976 0.1 1012315
08:00+14зюз310840 0.1 1013331
11:00+22зюз612431 0.0 10121889
14:00+24з812334 0.0 10112651
17:00+21зсз710200 0.0 10121973
20:00+12ссз611380 0.0 1017566
22 апреля, чт
чт2223:00+9ссз511420 0.0 1020610
02:00+6с36500 0.0 1022319
05:00+5с23551 0.0 1022144
08:00+6с12505 0.0 1024224
11:00+13зсз123023 0.0 10241237
14:00+16зюз3625100 0.0 10222043
17:00+18з47245 0.0 10202419
20:00+14зюз11385 0.0 102112
23 апреля, пт
пт2323:00+11з24451 0.0 1022102
02:00+8ссв24574 0.0 102396
05:00+8св3754100 0.0 1023180
08:00+9св3652100 0.0 1024245
11:00+16вюв123658 0.0 1024733
14:00+18юз3332100 0.0 10221410
17:00+20зюз3532100 0.0 10201732
20:00+16юз1245100 0.0 102023